GW1539 Weather Reports


time (UTC)temp
C
wind
direction
speed
KPH
gust
KPH
rain 1hr
cm
rain 24hr
cm
rain mn
cm
humidity
%
barometer
mb
20260504130120 18 246 4.8 14.5 0.00 0.00 0.00 52 1016.5
20260504081620 15 244 0.0 0.0 0.00 0.00 0.00 58 1017.5
20260504044619 4 335 0.0 0.0 0.00 0.00 0.00 91 1016.8
20260504041620 4 335 0.0 0.0 0.00 0.00 0.00 89 1016.6
20260504040124 5 335 0.0 0.0 0.00 0.00 0.00 89 1016.8
20260504033115 5 335 0.0 0.0 0.00 0.00 0.00 88 1016.8
20260504031630 6 335 0.0 0.0 0.00 0.00 0.00 89 1016.7
20260504024622 6 335 0.0 0.0 0.00 0.00 0.00 89 1017.0
20260504021621 7 335 0.0 0.0 0.00 0.00 0.00 89 1017.1
20260504014621 7 335 0.0 0.0 0.00 0.00 0.00 89 1017.1
20260504011620 7 335 0.0 0.0 0.00 0.00 0.00 89 1017.4
20260504004618 7 335 0.0 0.0 0.00 0.00 0.00 88 1017.6
20260504001616 7 335 0.0 0.0 0.00 0.00 0.00 88 1017.8
20260503234621 7 335 0.0 0.0 0.00 0.00 0.00 87 1017.8
20260503231617 7 335 0.0 0.0 0.00 0.00 0.00 86 1018.1
20260503224619 7 335 0.0 0.0 0.00 0.00 0.00 86 1018.3
20260503223113 7 335 0.0 0.0 0.00 0.00 0.00 85 1018.4
20260503220129 7 335 0.0 0.0 0.00 0.00 0.00 85 1018.3
20260503214617 7 335 0.0 0.0 0.00 0.00 0.00 83 1018.3
20260503211610 8 335 0.0 0.0 0.00 0.00 0.00 81 1018.2
20260503204623 9 335 0.0 0.0 0.00 0.00 0.00 78 1018.4
20260503201617 9 335 0.0 0.0 0.00 0.00 0.00 76 1018.4
20260503194620 10 335 0.0 0.0 0.00 0.00 0.00 75 1018.1
20260503191610 11 335 0.0 0.0 0.00 0.00 0.00 71 1018.1
20260503184623 12 335 0.0 0.0 0.00 0.00 0.00 67 1017.9
20260503181636 13 335 0.0 0.0 0.00 0.00 0.00 63 1017.7
20260503174618 15 335 0.0 0.0 0.00 0.00 0.00 57 1017.8
20260503171616 16 337 0.0 1.6 0.00 0.00 0.00 55 1017.6
20260503160122 18 263 0.0 3.2 0.00 0.00 0.00 44 1017.7
20260503150115 17 256 0.0 4.8 0.00 0.00 0.00 48 1018.2